Location: Qu�bec
(46.8000°N, 71.2500°W)
Time: 15:26:21
(UTC-04:00)

Envisat - Visible Passes

Search period start: 19 April 2018 00:00
Search period end: 29 April 2018 00:00
Orbit: 764 x 766 km, 98.2° (Epoch: 19 April)

Date Brightness Start Highest point End Pass type
(mag) Time Alt. Az. Time Alt. Az. Time Alt. Az.
19 Apr 5.6 21:23:07 10° SW 21:26:34 18° W 21:30:01 10° NW visible
20 Apr 4.5 20:44:49 10° SSW 20:49:30 37° W 20:54:13 10° NNW visible
21 Apr 3.2 20:07:33 10° S 20:12:38 78° WSW 20:17:45 10° NNW visible
21 Apr 6.0 21:51:52 10° W 21:52:30 10° W 21:53:09 10° WNW visible
22 Apr 5.3 21:11:22 10° SW 21:15:17 22° W 21:19:14 10° NW visible
23 Apr 4.1 20:33:25 10° S 20:38:17 46° W 20:43:11 10° NNW visible
24 Apr 5.7 21:38:50 10° WSW 21:41:11 13° W 21:43:34 10° WNW visible
25 Apr 5.0 20:59:44 10° SSW 21:04:02 27° W 21:08:22 10° NW visible
26 Apr 3.7 20:22:06 10° S 20:27:06 57° W 20:32:08 10° NNW visible
27 Apr 5.6 21:26:42 10° SW 21:29:54 17° W 21:33:05 10° NW visible
28 Apr 4.7 20:48:13 10° SSW 20:52:49 34° W 20:57:25 10° NNW visible
